User: anonymous   Login
Location: Caltech
(34.1382°N, 118.1253°W)
Time: 07:11:08
(UTC-08:00)
Language:

Iridium 65 - Orbit

View from above orbital plane
View from above orbital plane
View from above satellite
View from above satellite

Ground track
Ground track

The orbit data is extracted from the following two-line orbital elements,

1 25288U 98021D   16043.55067375  .00000054  00000-0  12124-4 0  9990
2 25288  86.3924  68.9790 0002334  96.3619 263.7842 14.34219442934691
Epoch (UTC): 12 February 2016 13:12:58
Eccentricity: 0.0002334
inclination: 86.3924°
perigee height: 776 km
apogee height: 779 km
right ascension of ascending node: 68.9790°
argument of perigee: 96.3619°
revolutions per day: 14.34219442
mean anomaly at epoch: 263.7842°
orbit number at epoch: 93469

The dashed part of the orbit path shows where the satellite is in the earth's shadow,  

DLR